[[{"header":{"parameterUnit":"m.s-1","parameterCategory":1,"la1":30.2991,"la2":30.254,"lo1":-89.0895,"lo2":-89.0444,"dy":0.0017,"dx":0.0017,"nx":28,"ny":28,"refTime":"2023-07-26T09:00:00:Z","depth":0,"parameterNumber":2,"parameterNumberName":"U-component_of_WINDS"},"data":[0,0,0,0,0,0,0,0,0,0,0,0,0,0,0,0,0,0,0,0,0,0,0,0,0,0,0,0,0,0,0,0,0,0,0,0,0,0,0,0,0,0,0,0,0,0,0,0,0,0,0,0,0,0,0,0,0,0,1.189,1.1888,0,1.1757,1.1756,1.1754,1.1637,1.1636,1.1634,1.1633,1.1495,1.1492,1.149,0,0,0,0,0,0,0,0,0,0,0,0,0,1.2037,1.2035,1.189,1.1888,1.1887,1.1758,1.1756,1.1754,1.1637,1.1636,1.1634,1.1633,1.1495,1.1493,1.149,0,0,0,0,0,0,0,0,0,0,0,0,0,1.1946,1.2034,1.189,1.1813,1.1805,1.1758,1.1756,1.1754,1.1638,1.1636,1.1634,1.1632,1.1496,1.1493,1.1489,1.1508,0,0,1.1478,1.1477,0,0,0,0,0,0,0,0,1.1951,1.194,1.1826,1.1818,1.1809,1.1712,1.1757,1.1671,1.1638,1.1701,1.1633,1.1631,1.1568,1.1559,1.1538,1.1501,1.1495,1.1478,1.1476,1.1474,1.1473,0,0,0,0,0,0,0,1.1958,1.1945,1.1837,1.1824,1.1814,1.1783,1.1768,1.174,1.1648,1.1695,1.1687,1.1673,1.1563,1.1542,1.1534,1.1493,1.1478,1.1475,1.1473,1.1471,1.1459,1.1461,0,0,0,0,0,0,1.1976,1.1952,1.1842,1.1833,1.1877,1.1782,1.1765,1.1745,1.1648,1.1631,1.1675,1.1668,1.1549,1.1538,1.1529,1.154,1.1474,1.1471,1.1469,1.1457,1.146,1.1462,0,0,0,0,0,0,1.198,1.1968,1.1847,1.189,1.1872,1.1782,1.176,1.1743,1.1722,1.1632,1.1614,1.167,1.1547,1.1534,1.1513,1.1534,1.1469,1.1466,1.1455,1.1458,1.1461,1.1566,0,0,0,0,0,0,1.1985,1.197,1.1977,1.1891,1.1871,1.1835,1.1761,1.1742,1.1716,1.1706,1.1623,1.1607,1.1545,1.1519,1.1509,1.1528,1.1463,1.1453,1.1457,1.146,1.156,1.1572,1.1582,0,0,0,0,0,1.199,1.2012,1.1978,1.1965,1.1878,1.1837,1.1825,1.1753,1.1719,1.1724,1.1666,1.161,1.1534,1.1518,1.1506,1.1524,1.1451,1.1456,1.146,1.1555,1.157,1.1582,0,0,0,0,0,0,1.2103,1.2,1.1961,1.1956,1.1906,1.1817,1.1822,1.1771,1.1729,1.1721,1.1633,1.1615,1.1603,1.1561,1.1545,1.1534,1.1485,1.1487,1.1561,1.1574,1.1585,1.1594,1.146,0,0,0,0,0,1.2127,1.2103,1.2014,1.2018,1.1995,1.1913,1.1893,1.1841,1.1786,1.1764,1.1704,1.1651,1.1614,1.1592,1.1554,1.1554,1.1532,1.156,1.1571,1.1581,1.1583,1.1575,1.1585,1.1476,1.1475,1.1475,0,0,1.2177,1.2117,1.2108,1.2039,1.1995,1.197,1.1896,1.1874,1.1854,1.176,1.1736,1.169,1.1625,1.1613,1.1605,1.1578,1.1608,1.1586,1.1594,1.1591,1.158,1.1591,1.16,1.1478,1.1478,1.1477,0,0,1.2254,1.2209,1.2205,1.2161,1.2095,1.204,1.2039,1.1957,1.1923,1.1898,1.1826,1.18,1.174,1.1695,1.1665,1.1723,1.1669,1.1713,1.177,1.1763,1.1772,1.1779,1.1796,1.1804,1.1716,1.1716,1.1716,0,1.2324,1.2285,1.221,1.2191,1.2161,1.2075,1.2069,1.2031,1.1955,1.1936,1.1907,1.1827,1.1778,1.1753,1.1767,1.1746,1.174,1.1721,1.1777,1.1784,1.1789,1.1804,1.1811,1.1722,1.1721,1.1721,1.172,0,1.2372,1.2346,1.2351,1.228,1.2251,1.2239,1.216,1.2139,1.2091,1.2038,1.2011,1.1948,1.1894,1.1885,1.1837,1.1852,1.1836,1.1794,1.1742,1.1806,1.1819,1.1824,1.173,1.1728,1.1726,1.1725,0,0,1.2516,1.2402,1.2405,1.237,1.2289,1.2266,1.225,1.2197,1.2179,1.213,1.2111,1.2061,1.202,1.1986,1.1932,1.1927,1.1972,1.1884,1.1881,1.19,1.198,1.2011,1.2019,1.1937,1.1938,1.1938,1.1984,0,1.2577,1.2543,1.2473,1.2459,1.2432,1.235,1.2334,1.2282,1.2232,1.22,1.2144,1.2109,1.206,1.2038,1.2029,1.1969,1.1987,1.1965,1.1915,1.1914,1.1932,1.2026,1.2059,1.2105,1.1989,1.199,1.1991,0,1.2644,1.2599,1.2583,1.2501,1.2487,1.2475,1.2419,1.2391,1.2329,1.2292,1.2253,1.2194,1.2168,1.2123,1.2084,1.2071,1.2047,1.2014,1.2014,1.2004,1.1955,1.2016,1.2119,1.2125,1.1998,1.1998,1.1997,0,1.2746,1.2682,1.2662,1.2636,1.2541,1.2533,1.2493,1.2429,1.2401,1.2352,1.2332,1.2281,1.2253,1.2213,1.2141,1.2115,1.2109,1.2058,1.2075,1.2077,1.2076,1.2076,1.2173,1.2066,1.2066,1.2066,1.2065,0,1.282,1.2813,1.2707,1.2695,1.2683,1.2602,1.2592,1.2544,1.2487,1.2462,1.2388,1.2366,1.2273,1.224,1.2183,1.2157,1.2146,1.2114,1.2098,1.2118,1.2122,1.2099,1.2093,1.2067,1.2067,1.2067,1.2066,0,1.2931,1.2861,1.2834,1.2746,1.2723,1.2718,1.2641,1.2625,1.2571,1.254,1.2528,1.2442,1.2398,1.2322,1.2257,1.2219,1.2203,1.2179,1.2225,1.2214,1.2234,1.2232,1.2317,1.2323,1.2216,1.2217,1.2218,0,1.2982,1.2974,1.2885,1.2863,1.2826,1.2793,1.2763,1.2683,1.2655,1.2582,1.2574,1.2525,1.2481,1.2415,1.2345,1.2293,1.2265,1.2298,1.2256,1.2276,1.2261,1.2261,1.2258,1.2307,1.2309,1.231,1.2311,0,1.3078,1.3042,1.3004,1.2952,1.2919,1.2874,1.2826,1.2812,1.272,1.2692,1.2647,1.2613,1.2546,1.2496,1.2435,1.239,1.2334,1.2325,1.2325,1.2345,1.237,1.2353,1.2247,1.2323,1.2321,1.2321,1.232,1.232,1.3157,1.3145,1.308,1.3038,1.2993,1.2949,1.2928,1.2871,1.2832,1.2771,1.2726,1.2683,1.2618,1.2529,1.2489,1.2452,1.2426,1.2428,1.2428,1.2429,1.2435,1.2379,1.2441,1.244,1.244,1.244,1.2439,0,1.3246,1.32,1.3162,1.3096,1.3063,1.3015,1.2958,1.2932,1.2896,1.284,1.2798,1.2744,1.2696,1.2622,1.2566,1.2551,1.2524,1.2539,1.2538,1.2528,1.2463,1.2467,1.2562,1.2562,1.2562,1.2562,1.2562,1.2562,1.3288,1.3263,1.3221,1.3172,1.3125,1.3083,1.3054,1.3012,1.2967,1.291,1.287,1.2822,1.2758,1.2697,1.2649,1.2628,1.261,1.2633,1.2604,1.2544,1.2533,1.2522,1.2524,1.263,1.263,1.267,1.2671,1.2671]},{"header":{"parameterUnit":"m.s-1","parameterCategory":1,"la1":30.2991,"la2":30.254,"lo1":-89.0895,"lo2":-89.0444,"dy":0.0017,"dx":0.0017,"nx":28,"ny":28,"refTime":"2023-07-26T09:00:00:Z","depth":0,"parameterNumber":3,"parameterNumberName":"V-component_of_WINDS"},"data":[0,0,0,0,0,0,0,0,0,0,0,0,0,0,0,0,0,0,0,0,0,0,0,0,0,0,0,0,0,0,0,0,0,0,0,0,0,0,0,0,0,0,0,0,0,0,0,0,0,0,0,0,0,0,0,0,0,0,1.7786,1.7786,0,1.7792,1.7792,1.7792,1.7752,1.7751,1.775,1.7749,1.7754,1.7756,1.7757,0,0,0,0,0,0,0,0,0,0,0,0,0,1.7737,1.7738,1.7786,1.7786,1.7786,1.7792,1.7792,1.7792,1.7753,1.7751,1.775,1.7749,1.7754,1.7755,1.7757,0,0,0,0,0,0,0,0,0,0,0,0,0,1.7752,1.7738,1.7786,1.7767,1.7765,1.7792,1.7792,1.7792,1.7753,1.7751,1.775,1.7748,1.7754,1.7755,1.7757,1.7802,0,0,1.7762,1.7763,0,0,0,0,0,0,0,0,1.7751,1.7754,1.777,1.7768,1.7767,1.777,1.7777,1.7796,1.7753,1.7758,1.7749,1.7747,1.7761,1.7762,1.7767,1.7802,1.7802,1.7763,1.7764,1.7764,1.7765,0,0,0,0,0,0,0,1.775,1.7754,1.7788,1.777,1.7768,1.7757,1.7758,1.778,1.7769,1.7757,1.7754,1.7756,1.776,1.7765,1.7767,1.7802,1.7763,1.7764,1.7765,1.7766,1.7872,1.7873,0,0,0,0,0,0,1.7752,1.7753,1.7788,1.7789,1.7755,1.776,1.776,1.7771,1.7768,1.7766,1.7757,1.7754,1.7763,1.7765,1.7767,1.7817,1.7764,1.7766,1.7767,1.787,1.7872,1.7874,0,0,0,0,0,0,1.7751,1.7756,1.7788,1.777,1.7773,1.7762,1.7774,1.7772,1.7777,1.7768,1.7766,1.7765,1.7762,1.7764,1.7793,1.7816,1.7767,1.7769,1.7868,1.787,1.7873,1.7919,0,0,0,0,0,0,1.775,1.7756,1.7773,1.7771,1.7774,1.7815,1.7776,1.7773,1.778,1.7776,1.7775,1.7773,1.776,1.779,1.7795,1.7818,1.777,1.7866,1.7869,1.7872,1.7915,1.7923,1.7929,0,0,0,0,0,1.7748,1.7787,1.7775,1.7779,1.7797,1.7817,1.7819,1.7804,1.7783,1.7799,1.7793,1.7773,1.7813,1.7794,1.7798,1.7822,1.7864,1.7868,1.7872,1.7912,1.7921,1.7929,0,0,0,0,0,0,1.7793,1.7786,1.7773,1.7811,1.7815,1.781,1.7831,1.7814,1.7824,1.7819,1.78,1.78,1.7831,1.783,1.7808,1.7864,1.7835,1.784,1.7864,1.7873,1.7879,1.7879,1.7771,0,0,0,0,0,1.7807,1.7824,1.7817,1.7852,1.7854,1.7843,1.7851,1.7839,1.7841,1.7843,1.7839,1.7842,1.7855,1.7864,1.7875,1.7915,1.7913,1.7934,1.7941,1.7946,1.7951,1.7969,1.7977,1.7887,1.7887,1.7887,0,0,1.7837,1.7835,1.7847,1.7861,1.7862,1.7879,1.7844,1.7865,1.7877,1.7846,1.7872,1.7869,1.7871,1.7905,1.7919,1.7904,1.7975,1.7951,1.7956,1.7957,1.7974,1.7982,1.799,1.7889,1.7889,1.7888,0,0,1.7899,1.7901,1.7928,1.793,1.7932,1.7923,1.793,1.7927,1.7924,1.795,1.7926,1.794,1.7964,1.7965,1.7969,1.803,1.801,1.8034,1.807,1.8088,1.8095,1.8101,1.8121,1.8128,1.8038,1.8038,1.8038,0,1.7936,1.7961,1.7945,1.7966,1.7971,1.7944,1.797,1.7973,1.7979,1.7983,1.7966,1.7993,1.7993,1.8025,1.8039,1.8044,1.805,1.8034,1.8096,1.8102,1.8107,1.8126,1.8133,1.8041,1.8041,1.8041,1.804,0,1.8005,1.8023,1.8045,1.805,1.8058,1.8083,1.8068,1.8078,1.8065,1.8058,1.8083,1.8081,1.8091,1.8098,1.8086,1.8128,1.8118,1.8099,1.8069,1.8119,1.8136,1.8143,1.8045,1.8044,1.8043,1.8043,0,0,1.8096,1.8091,1.8099,1.81,1.8099,1.8112,1.8134,1.8143,1.8151,1.8156,1.8172,1.8192,1.8173,1.8177,1.8165,1.8181,1.8226,1.8159,1.8159,1.817,1.827,1.8283,1.8292,1.8214,1.8215,1.8216,1.8269,0,1.8155,1.8193,1.8177,1.8215,1.823,1.8203,1.8222,1.8222,1.8216,1.8227,1.8219,1.8233,1.8208,1.821,1.8225,1.8218,1.8246,1.8214,1.8227,1.8228,1.8226,1.8301,1.8316,1.8366,1.8276,1.8277,1.8278,0,1.823,1.8236,1.8276,1.827,1.8275,1.8293,1.8298,1.831,1.8309,1.8303,1.8307,1.829,1.831,1.8281,1.8306,1.8285,1.8289,1.8286,1.8288,1.8288,1.8255,1.8301,1.8382,1.8389,1.8288,1.8287,1.8287,0,1.829,1.8309,1.8334,1.8336,1.833,1.8342,1.8341,1.8339,1.8344,1.8349,1.8352,1.836,1.8363,1.8369,1.8354,1.8334,1.8381,1.8351,1.8375,1.8375,1.8385,1.8384,1.8466,1.8391,1.8391,1.839,1.839,0,1.8357,1.8382,1.836,1.8376,1.8402,1.8383,1.8409,1.8404,1.8402,1.8415,1.8393,1.8405,1.8385,1.8396,1.8384,1.8406,1.8408,1.8403,1.8399,1.8404,1.8404,1.8406,1.8401,1.8392,1.8392,1.8392,1.8391,0,1.8428,1.8415,1.844,1.8432,1.8431,1.845,1.8443,1.8456,1.8447,1.8464,1.8467,1.8453,1.8463,1.8449,1.8459,1.8451,1.848,1.8472,1.848,1.8477,1.8501,1.8498,1.8585,1.8595,1.8515,1.8516,1.8516,0,1.8471,1.8489,1.8482,1.8489,1.8488,1.85,1.8505,1.8487,1.8493,1.8493,1.8506,1.8514,1.852,1.8538,1.8529,1.8535,1.8526,1.8556,1.8527,1.8531,1.8524,1.8523,1.8524,1.8562,1.8563,1.8564,1.8564,0,1.8548,1.854,1.8548,1.8554,1.856,1.8564,1.8566,1.8573,1.8553,1.8561,1.8572,1.8576,1.8585,1.8593,1.8597,1.8594,1.8575,1.8573,1.8579,1.8583,1.8587,1.8583,1.8494,1.8571,1.8571,1.857,1.857,1.8569,1.8605,1.8619,1.8615,1.8625,1.8624,1.8626,1.8637,1.8629,1.8637,1.8643,1.8631,1.8644,1.8641,1.8644,1.8643,1.8652,1.8639,1.8647,1.8649,1.8651,1.8654,1.8586,1.8653,1.8652,1.8652,1.8652,1.8652,0,1.8679,1.8675,1.8684,1.8686,1.8693,1.8675,1.8675,1.8682,1.8693,1.8692,1.8698,1.8709,1.8716,1.8706,1.8712,1.8721,1.8712,1.8722,1.8721,1.872,1.8666,1.866,1.8729,1.8729,1.8729,1.8729,1.8729,1.8729,1.8718,1.8739,1.8731,1.8751,1.8746,1.8758,1.876,1.8761,1.8759,1.8772,1.8778,1.8771,1.8766,1.8771,1.8776,1.8773,1.8775,1.8788,1.8782,1.8732,1.8724,1.8717,1.8711,1.8789,1.879,1.8835,1.8835,1.8836]}]]